Theta_e
315 316 315 316 314 314 312 311 307 301 302 307 309 314 313 313 312 313 313 309 305 304 304 306 308 310 311 312 312 313 314 314 314 313 313 312 311 311
316 315 315 314 314 314 314 312 310 310 305 309 310 312 311 312 314 313 312 309 304 303 303 302 304 307 308 308 309 309 309 310 310 309 307 307 307 307
315 315 315 316 315 314 313 314 313 312 309 312 310 309 308 307 309 310 311 310 309 301 301 301 301 301 302 303 303 304 305 305 304 303 303 304 304 304
316 316 316 315 313 315 315 314 314 314 312 310 308 306 305 306 304 306 308 309 307 304 300 299 299 298 298 298 299 299 300 300 299 299 299 298 298 298
316 315 315 313 314 315 314 315 314 314 311 312 312 301 298 298 298 299 299 300 302 301 298 298 298 298 298 297 297 297 297 296 295 295 294 294 294 294
317 316 316 315 314 314 314 314 314 312 312 312 309 296 295 295 296 295 294 295 295 298 297 295 295 296 296 296 295 295 296 295 295 294 293 292 292 293
314 314 311 306 297 300 311 314 311 311 311 301 293 291 290 290 290 291 289 290 292 293 294 293 294 292 292 293 293 294 294 294 294 294 293 292 292 292
312 297 294 293 291 290 291 291 293 301 296 292 290 288 287 287 287 287 287 286 286 292 289 288 291 290 291 291 292 293 292 292 293 293 292 292 292 292
305 295 292 290 290 289 288 288 288 287 286 291 287 285 285 285 286 285 285 285 284 287 284 281 285 284 285 286 287 289 287 287 286 286 287 287 287 287
294 293 291 289 289 288 287 285 285 285 286 286 286 285 285 286 285 284 281 280 281 281 280 276 278 278 281 282 285 286 285 284 284 284 284 284 285 286
288 288 288 287 288 289 284 282 281 282 285 285 285 285 285 284 283 281 279 279 278 279 278 276 277 276 277 278 279 283 283 282 282 283 283 283 283 283
284 285 285 285 285 285 283 282 280 281 282 282 281 281 281 281 281 279 278 276 276 275 277 275 275 275 272 276 277 278 278 280 281 282 282 282 282 280
283 283 284 285 284 284 283 282 281 282 281 280 279 279 279 278 278 279 278 277 275 274 277 275 274 273 272 273 275 276 276 277 277 278 280 281 281 280
280 281 283 284 284 283 282 282 282 281 280 278 277 276 276 275 276 276 276 276 276 275 275 275 270 272 271 270 270 274 274 274 275 275 277 278 279 278
282 283 283 283 282 281 281 281 279 278 276 275 274 274 274 275 274 274 275 274 274 274 274 275 273 272 270 268 268 269 270 272 274 273 274 273 272 273
281 280 280 280 279 279 277 277 277 276 275 274 273 273 273 273 271 272 270 271 270 270 273 273 272 271 268 269 270 269 271 268 270 271 271 272 273 274
280 280 278 277 276 275 275 275 275 274 273 273 272 271 270 270 270 270 270 269 267 267 267 270 271 272 271 271 268 269 268 268 270 270 270 270 271 273
278 276 274 274 273 273 272 272 272 271 271 270 270 269 268 268 268 268 268 266 265 266 266 267 268 267 268 269 271 268 268 268 269 270 270 268 268 271
273 272 271 271 271 271 271 270 269 270 270 269 267 267 267 267 266 266 265 265 264 265 265 267 266 265 262 260 267 272 267 268 268 267 268 268 267 269
271 270 270 269 270 269 269 268 268 267 267 266 264 263 262 264 263 263 263 258 262 264 265 266 265 265 263 262 263 266 271 267 267 267 267 269 271 274
269 269 269 268 267 267 266 264 260 260 260 259 260 261 255 260 259 261 261 261 260 264 263 263 265 268 267 266 262 263 266 271 271 268 268 268 268 269
267 267 266 266 265 264 262 260 261 260 259 260 252 251 250 255 257 258 256 257 261 262 263 264 266 266 264 264 262 262 264 267 270 272 273 273 270 267
264 264 264 263 262 259 261 258 258 253 257 256 257 256 249 254 258 257 256 259 261 261 262 262 263 264 264 264 263 263 263 264 266 267 269 274 276 276
Wind_Speed
7 6 4 4 4 4 3 4 5 4 5 4 5 7 6 6 9 7 10 13 17 17 17 19 21 23 22 21 22 23 21 18 17 18 17 19 20 21
5 5 6 6 5 5 6 5 5 6 7 5 7 6 5 5 8 9 10 11 13 17 17 17 19 21 18 19 20 18 15 14 13 14 15 17 18 19
7 9 12 10 7 5 5 6 6 6 7 7 5 4 5 6 4 5 5 6 7 13 13 12 13 13 11 9 7 9 7 6 8 11 14 16 18 19
12 11 13 6 8 9 7 10 9 9 8 12 5 4 6 2 1 2 2 2 3 3 4 4 3 4 3 2 3 5 7 7 9 11 12 15 17 19
13 12 12 8 10 8 9 9 8 7 7 8 9 1 2 2 2 3 3 3 4 7 6 6 3 1 1 3 4 5 5 6 10 11 13 14 17 19
12 12 12 12 13 12 10 12 11 9 8 8 6 2 1 1 2 1 2 3 3 4 7 7 8 8 7 5 3 4 7 11 12 10 16 17 17 19
10 10 7 1 5 3 7 10 9 9 7 3 3 2 1 0 2 1 3 1 3 4 3 3 4 5 5 6 8 11 12 17 21 21 19 19 19 19
10 4 7 10 11 12 14 14 7 4 4 3 2 3 3 2 2 2 1 2 1 3 3 2 1 1 2 2 9 11 11 11 11 11 12 13 16 17
7 9 6 6 9 10 14 18 18 18 8 5 6 3 3 3 2 3 3 3 2 3 3 3 3 3 5 6 13 11 10 13 15 16 17 18 19 20
5 9 10 10 8 9 11 13 12 12 10 10 9 11 7 3 4 2 3 3 1 5 6 2 4 3 3 4 11 10 15 18 20 22 21 21 20 21
7 8 8 9 12 15 14 14 15 11 11 19 17 15 19 16 10 5 5 4 3 3 6 2 3 4 3 3 3 17 18 21 23 23 22 22 23 24
10 10 16 15 15 14 14 11 15 8 8 11 11 14 13 16 18 10 5 6 4 2 5 6 4 5 4 2 7 5 7 17 23 25 25 25 24 9
9 8 10 22 26 23 15 11 13 9 11 9 7 6 7 8 7 8 9 7 5 3 7 4 3 4 2 7 4 6 5 7 8 10 19 22 23 21
12 11 13 24 24 24 16 19 18 10 6 6 7 6 6 7 7 8 9 7 5 4 5 5 2 5 5 7 8 7 8 8 9 9 7 13 16 22
12 20 25 25 23 19 21 18 13 8 6 7 6 6 5 7 8 7 7 8 7 7 7 6 5 7 5 6 8 9 11 7 4 8 8 9 10 9
16 14 13 13 18 12 11 10 9 6 6 6 5 5 6 6 6 6 6 6 5 6 9 8 8 7 6 7 8 9 8 6 10 8 10 10 10 10
13 8 10 8 10 10 8 8 6 6 6 5 5 5 6 6 5 6 6 5 4 5 6 7 9 9 8 10 8 8 9 11 9 11 12 11 11 10
9 9 9 9 8 7 8 7 6 7 6 6 5 6 6 5 5 5 5 3 4 4 5 6 7 8 7 7 10 8 9 10 11 12 12 12 13 11
10 9 9 8 7 7 6 6 6 5 6 6 6 5 4 4 4 4 4 5 5 5 5 6 7 8 10 11 6 9 12 11 12 12 11 11 14 13
9 8 8 7 6 6 6 5 5 5 6 6 5 4 3 3 3 4 4 2 4 5 6 6 6 7 9 11 14 12 18 12 11 13 13 12 13 26
7 8 7 7 6 6 5 4 4 4 3 4 3 4 3 3 3 4 4 6 5 5 6 7 7 13 9 10 10 11 11 20 20 15 14 12 12 14
7 7 7 6 5 5 4 3 4 4 4 4 3 3 2 2 2 3 4 3 5 5 6 7 8 8 8 9 12 16 15 15 20 24 26 22 9 6
6 6 5 5 3 2 4 4 5 3 2 2 4 3 3 3 4 2 2 4 5 6 7 8 8 8 8 10 13 13 19 18 14 17 16 20 17 23
Wind_Direction
215 203 195 218 205 199 185 169 166 204 249 241 235 213 219 208 225 208 220 224 223 222 223 226 230 233 229 234 242 246 246 244 250 257 263 268 270 273
214 205 228 232 212 212 209 202 196 215 245 195 228 236 211 213 221 210 220 230 232 232 232 223 223 224 228 230 234 236 236 247 251 262 269 269 271 272
223 215 223 223 223 222 215 221 219 209 232 267 231 223 223 222 220 209 224 232 239 231 237 242 241 238 230 226 225 230 229 246 259 270 274 274 275 277
221 217 224 217 221 229 228 234 228 225 221 243 251 237 218 228 322 242 261 258 285 319 256 262 227 196 199 235 265 253 239 247 254 257 268 279 278 278
216 214 224 207 228 231 227 234 235 238 222 239 249 133 80 57 85 72 63 79 61 70 81 87 59 2 269 272 270 254 248 262 270 266 264 266 270 274
215 214 219 218 226 230 236 236 240 235 232 242 249 142 140 97 86 132 81 14 84 46 68 68 76 70 57 42 22 303 270 264 295 295 279 264 257 256
216 213 222 209 26 345 242 241 237 239 245 188 152 136 148 195 118 15 98 91 62 30 18 23 32 42 35 25 0 333 299 276 263 262 251 247 252 254
225 124 110 104 84 81 81 72 55 204 187 145 120 143 115 47 60 66 77 75 123 60 22 293 230 281 268 294 280 287 320 321 312 310 313 307 290 273
184 158 137 129 124 111 90 79 65 66 72 130 110 82 86 114 81 70 44 61 25 350 16 312 21 26 22 4 339 344 38 14 3 354 348 344 338 332
134 153 148 148 144 135 113 91 75 65 65 75 87 99 96 74 102 121 106 131 62 72 20 338 2 6 326 314 324 23 5 353 344 336 331 326 322 321
91 100 113 116 128 131 113 105 96 81 69 94 90 79 81 68 69 77 49 52 45 55 33 353 351 318 279 286 14 352 346 338 327 321 318 319 319 315
99 90 101 107 100 108 105 105 101 82 85 74 78 78 67 66 58 55 51 68 47 26 28 358 356 352 324 318 347 348 332 316 319 319 317 319 319 315
97 95 98 106 106 99 88 93 99 93 91 87 71 63 69 70 68 61 56 55 51 32 14 11 332 353 281 314 331 316 315 339 322 312 310 315 318 319
91 93 91 89 90 88 90 84 85 79 75 74 78 55 46 57 54 56 54 52 43 32 19 11 315 341 323 315 312 329 327 313 306 304 306 314 323 319
104 108 99 95 87 82 81 80 76 68 76 73 70 70 49 54 49 47 45 39 29 26 16 12 6 350 328 307 306 316 314 309 334 332 312 302 296 290
107 104 101 99 93 83 73 70 69 73 86 92 98 81 58 50 47 35 32 24 26 11 6 1 349 333 312 307 305 307 311 317 312 313 307 298 291 287
109 107 95 96 90 89 81 77 80 76 73 75 70 63 63 49 44 36 37 24 20 355 344 340 336 326 313 308 306 306 316 304 303 303 307 300 296 293
97 90 85 80 80 86 88 84 75 79 75 76 69 61 52 44 37 38 38 13 4 349 338 325 330 328 321 312 289 316 302 302 303 304 306 301 298 298
79 81 77 78 81 78 82 83 83 70 79 74 63 54 52 48 37 34 26 10 355 341 329 326 332 324 324 313 284 295 311 302 303 303 301 294 293 295
71 77 84 88 86 89 87 87 75 75 69 66 64 59 38 55 38 25 19 360 330 331 330 320 321 323 318 310 309 308 306 302 303 301 300 292 284 286
77 79 76 74 81 85 82 82 75 62 63 71 54 54 24 41 20 19 4 354 332 324 314 314 313 311 308 306 303 305 306 306 303 299 299 292 299 301
75 73 73 75 75 88 88 91 80 71 66 76 74 65 23 42 34 8 358 324 312 311 305 308 318 321 314 310 308 308 310 312 309 302 295 282 280 280
67 73 69 72 63 51 68 72 79 73 89 94 48 33 37 23 1 331 288 294 312 321 323 322 317 312 312 311 308 308 311 312 316 321 313 305 268 251